[[{"header":{"parameterUnit":"m.s-1","parameterCategory":2,"la1":30.2991,"la2":30.254,"lo1":-89.0895,"lo2":-89.0444,"dy":0.0017,"dx":0.0017,"nx":28,"ny":28,"refTime":"2024-02-23T09:00:00:Z","depth":"0","parameterNumber":2,"parameterNumberName":"U-component_of_CURRENTS"},"data":[0,0,0,0,0,0,0,0,0,0,0,0,0,0,0,0,0,0,0,0,0,0,0,0,0,0,0,0,0,0,0,0,0,0,0,0,0,0,0,0,0,0,0,0,0,0,0,0,0,0,0,0,0,0,0,0,0,0,0.1677,0.1676,0,0.1657,0.1657,0.1657,0.1638,0.1638,0.1638,0.1638,0.1633,0.1633,0.1633,0,0,0,0,0,0,0,0,0,0,0,0,0,0.1688,0.1688,0.1677,0.1676,0.1676,0.1657,0.1657,0.1657,0.1638,0.1638,0.1638,0.1638,0.1633,0.1633,0.1633,0,0,0,0,0,0,0,0,0,0,0,0,0,0.1677,0.1688,0.1677,0.1665,0.1664,0.1657,0.1657,0.1657,0.1638,0.1638,0.1638,0.1637,0.1633,0.1633,0.1633,0.1638,0,0,0.1633,0.1633,0,0,0,0,0,0,0,0,0.1677,0.1676,0.1667,0.1666,0.1665,0.165,0.1659,0.1651,0.1638,0.1647,0.1638,0.1637,0.1641,0.164,0.1636,0.1638,0.1638,0.1633,0.1633,0.1633,0.1633,0,0,0,0,0,0,0,0.1678,0.1677,0.1668,0.1667,0.1665,0.1658,0.1656,0.1658,0.1645,0.1646,0.1645,0.1644,0.164,0.1636,0.1636,0.1638,0.1633,0.1633,0.1633,0.1633,0.1669,0.1669,0,0,0,0,0,0,0.1683,0.1678,0.1669,0.1668,0.1671,0.1658,0.1656,0.1655,0.1645,0.1643,0.1645,0.1644,0.1636,0.1636,0.1635,0.1666,0.1633,0.1633,0.1633,0.1668,0.1669,0.167,0,0,0,0,0,0,0.1683,0.1682,0.167,0.1673,0.1671,0.1658,0.1657,0.1655,0.1653,0.1644,0.1642,0.1646,0.1636,0.1635,0.1642,0.1665,0.1633,0.1633,0.1667,0.1668,0.1669,0.1711,0,0,0,0,0,0,0.1684,0.1682,0.1684,0.1673,0.1671,0.1669,0.1657,0.1654,0.1653,0.1651,0.1644,0.1643,0.1635,0.1642,0.1642,0.1664,0.1633,0.1665,0.1667,0.1669,0.1709,0.1714,0.1718,0,0,0,0,0,0.1684,0.1686,0.1684,0.1683,0.1673,0.167,0.1668,0.1657,0.1653,0.1655,0.1652,0.1644,0.1653,0.1642,0.1642,0.1665,0.1665,0.1667,0.1669,0.1707,0.1713,0.1718,0,0,0,0,0,0,0.169,0.1684,0.1682,0.1681,0.1678,0.1667,0.1667,0.1662,0.166,0.1661,0.1651,0.165,0.1666,0.1659,0.1647,0.1681,0.166,0.1662,0.1689,0.1694,0.1699,0.172,0.1633,0,0,0,0,0,0.1694,0.1693,0.1688,0.1688,0.1689,0.168,0.1678,0.1673,0.1669,0.1668,0.1663,0.1665,0.1674,0.1678,0.168,0.1696,0.1701,0.1712,0.1717,0.1721,0.1739,0.1764,0.1773,0.1677,0.1677,0.1676,0,0,0.1693,0.1692,0.169,0.1689,0.1686,0.169,0.1678,0.1679,0.1688,0.1669,0.168,0.168,0.1682,0.17,0.1708,0.1697,0.175,0.1724,0.1727,0.1743,0.1767,0.1777,0.1785,0.1678,0.1678,0.1677,0,0,0.1695,0.1696,0.1697,0.17,0.1702,0.1699,0.1702,0.1698,0.1703,0.1711,0.1708,0.1727,0.1723,0.1742,0.1748,0.1784,0.1774,0.1778,0.1821,0.1845,0.1854,0.1861,0.1873,0.1881,0.1781,0.1781,0.1781,0,0.1695,0.1697,0.1697,0.1704,0.1709,0.1706,0.1713,0.1722,0.172,0.1734,0.172,0.1749,0.1751,0.1793,0.1808,0.1798,0.18,0.1797,0.1852,0.186,0.1867,0.1877,0.1885,0.1784,0.1783,0.1783,0.1783,0,0.1702,0.1704,0.1708,0.1716,0.1724,0.173,0.1743,0.1755,0.1759,0.1768,0.1804,0.1811,0.1831,0.1838,0.1834,0.189,0.1871,0.1854,0.1838,0.1879,0.1887,0.1895,0.1787,0.1786,0.1785,0.1785,0,0,0.1694,0.1708,0.1708,0.1713,0.1733,0.1736,0.1767,0.1791,0.1812,0.1828,0.1863,0.1897,0.1905,0.1915,0.1919,0.1948,0.1999,0.1926,0.1926,0.1939,0.2043,0.195,0.1949,0.1985,0.1987,0.1988,0.2026,0,0.1695,0.1707,0.1719,0.1731,0.1737,0.1758,0.1784,0.1812,0.1834,0.1867,0.1907,0.1936,0.1933,0.1947,0.1981,0.1992,0.2023,0.199,0.2001,0.2001,0.1915,0.1957,0.1841,0.1858,0.2034,0.2035,0.2036,0,0.1694,0.1703,0.1715,0.1737,0.1743,0.1756,0.1798,0.1822,0.188,0.1901,0.195,0.1973,0.2038,0.2019,0.2081,0.2055,0.2063,0.2069,0.207,0.1978,0.1924,0.1847,0.1865,0.1843,0.2048,0.2047,0.2046,0,0.1678,0.1698,0.1706,0.1714,0.1743,0.176,0.1781,0.1831,0.186,0.1929,0.1957,0.2024,0.2054,0.2091,0.2113,0.2099,0.2163,0.214,0.2068,0.2061,0.1964,0.1944,0.1964,0.2192,0.2191,0.2191,0.2191,0,0.167,0.1675,0.1698,0.17,0.1718,0.1748,0.1779,0.1811,0.1871,0.1905,0.1974,0.2014,0.2072,0.2113,0.2133,0.2122,0.2179,0.2091,0.2071,0.1972,0.1953,0.1928,0.1925,0.2193,0.2192,0.2192,0.2192,0,0.1647,0.166,0.1668,0.1697,0.1706,0.172,0.1767,0.1792,0.1851,0.1903,0.193,0.2013,0.2053,0.2099,0.2149,0.2124,0.2072,0.2121,0.1993,0.1957,0.1833,0.1835,0.1742,0.1711,0.2042,0.204,0.2038,0,0.1638,0.1637,0.1658,0.1663,0.1674,0.17,0.1719,0.1775,0.1803,0.1895,0.1917,0.1982,0.2002,0.2038,0.2016,0.2019,0.2004,0.191,0.1864,0.1823,0.1813,0.1738,0.1717,0.1757,0.1753,0.175,0.1747,0,0.162,0.1623,0.1629,0.164,0.1652,0.1671,0.1702,0.1721,0.1786,0.1825,0.1874,0.1899,0.191,0.1851,0.184,0.183,0.1801,0.1841,0.1844,0.1631,0.1509,0.147,0.1737,0.1719,0.1722,0.1724,0.1725,0.1726,0.1605,0.1604,0.1609,0.1612,0.1624,0.1636,0.1632,0.1663,0.169,0.1703,0.1778,0.1751,0.1724,0.1676,0.1663,0.1561,0.1589,0.1508,0.1528,0.1468,0.1389,0.1582,0.1507,0.1508,0.1509,0.1511,0.1512,0,0.1579,0.1578,0.1584,0.158,0.1569,0.1594,0.1609,0.1585,0.1573,0.1578,0.158,0.1518,0.1443,0.1424,0.1335,0.1274,0.1226,0.1255,0.1161,0.117,0.1384,0.1324,0.1149,0.1149,0.1149,0.1149,0.1149,0.1149,0.1568,0.1552,0.1548,0.1516,0.1514,0.1481,0.1472,0.1434,0.1414,0.1323,0.1252,0.1237,0.1254,0.12,0.1121,0.1098,0.1065,0.0955,0.1036,0.1228,0.1254,0.1279,0.1223,0.103,0.103,0.0743,0.0741,0.074]},{"header":{"parameterUnit":"m.s-1","parameterCategory":2,"la1":30.2991,"la2":30.254,"lo1":-89.0895,"lo2":-89.0444,"dy":0.0017,"dx":0.0017,"nx":28,"ny":28,"refTime":"2024-02-23T09:00:00:Z","depth":"0","parameterNumber":3,"parameterNumberName":"V-component_of_CURRENTS"},"data":[0,0,0,0,0,0,0,0,0,0,0,0,0,0,0,0,0,0,0,0,0,0,0,0,0,0,0,0,0,0,0,0,0,0,0,0,0,0,0,0,0,0,0,0,0,0,0,0,0,0,0,0,0,0,0,0,0,0,-0.0073,-0.0073,0,-0.0061,-0.0061,-0.0061,-0.0066,-0.0066,-0.0067,-0.0067,-0.0078,-0.0078,-0.0078,0,0,0,0,0,0,0,0,0,0,0,0,0,-0.0103,-0.0102,-0.0073,-0.0073,-0.0073,-0.0061,-0.0061,-0.0061,-0.0066,-0.0066,-0.0067,-0.0067,-0.0078,-0.0078,-0.0078,0,0,0,0,0,0,0,0,0,0,0,0,0,-0.0091,-0.0102,-0.0073,-0.0073,-0.0073,-0.0061,-0.0061,-0.0061,-0.0066,-0.0066,-0.0067,-0.0067,-0.0078,-0.0078,-0.0078,-0.0074,0,0,-0.0079,-0.0079,0,0,0,0,0,0,0,0,-0.0092,-0.009,-0.0073,-0.0073,-0.0073,-0.0064,-0.0076,-0.0066,-0.0066,-0.007,-0.0067,-0.0067,-0.0075,-0.0075,-0.0074,-0.0075,-0.0075,-0.0079,-0.0079,-0.0079,-0.0079,0,0,0,0,0,0,0,-0.0093,-0.0091,-0.007,-0.0073,-0.0072,-0.0074,-0.0073,-0.0074,-0.0072,-0.007,-0.007,-0.0066,-0.0075,-0.0073,-0.0074,-0.0075,-0.0079,-0.0079,-0.0079,-0.0079,-0.0074,-0.0074,0,0,0,0,0,0,-0.0091,-0.0092,-0.007,-0.0069,-0.0082,-0.0073,-0.0072,-0.0068,-0.0072,-0.0072,-0.0066,-0.0067,-0.0073,-0.0074,-0.0074,-0.0064,-0.0079,-0.0079,-0.0079,-0.0074,-0.0074,-0.0074,0,0,0,0,0,0,-0.0092,-0.0089,-0.007,-0.0079,-0.0077,-0.0072,-0.0068,-0.0067,-0.0065,-0.0069,-0.007,-0.0064,-0.0073,-0.0074,-0.0073,-0.0064,-0.0079,-0.008,-0.0075,-0.0074,-0.0074,-0.0046,0,0,0,0,0,0,-0.0093,-0.009,-0.0086,-0.0079,-0.0076,-0.0058,-0.0067,-0.0067,-0.0062,-0.0063,-0.0067,-0.0069,-0.0073,-0.0073,-0.0073,-0.0065,-0.008,-0.0075,-0.0075,-0.0074,-0.0047,-0.0045,-0.0042,0,0,0,0,0,-0.0094,-0.0085,-0.0086,-0.0084,-0.0072,-0.0058,-0.0056,-0.0055,-0.0062,-0.0056,-0.0062,-0.0068,-0.007,-0.0073,-0.0073,-0.0065,-0.0075,-0.0075,-0.0074,-0.0048,-0.0045,-0.0043,0,0,0,0,0,0,-0.0095,-0.0085,-0.0086,-0.0074,-0.0065,-0.0058,-0.0052,-0.0053,-0.0053,-0.0056,-0.0064,-0.0065,-0.0061,-0.0068,-0.007,-0.0063,-0.0074,-0.0074,-0.0054,-0.0051,-0.0049,-0.0033,-0.008,0,0,0,0,0,-0.0094,-0.0086,-0.0076,-0.0066,-0.0061,-0.0058,-0.0053,-0.0051,-0.0049,-0.0049,-0.0054,-0.0059,-0.0059,-0.0059,-0.0061,-0.0056,-0.0053,-0.0052,-0.005,-0.0048,-0.0035,-0.0027,-0.0023,-0.0072,-0.0072,-0.0072,0,0,-0.0092,-0.0085,-0.008,-0.0066,-0.006,-0.0045,-0.0055,-0.0044,-0.0034,-0.0051,-0.0042,-0.005,-0.0056,-0.005,-0.0049,-0.0054,-0.0032,-0.0047,-0.0045,-0.0033,-0.0026,-0.0021,-0.0017,-0.0072,-0.0072,-0.0072,0,0,-0.0077,-0.0076,-0.0062,-0.0053,-0.0041,-0.0037,-0.0033,-0.0025,-0.0024,-0.0017,-0.0027,-0.0027,-0.0031,-0.0029,-0.003,-0.0015,-0.002,-0.0021,0.0006,0.0013,0.0017,0.0021,0.0032,0.0036,-0.002,-0.002,-0.002,0,-0.0075,-0.0054,-0.0055,-0.0038,-0.0026,-0.0031,-0.001,-0.0009,-0.0003,0.0004,-0.0011,-0.0004,-0.0017,0.0002,0.0002,-0.0008,-0.0005,-0.0005,0.0017,0.0021,0.0024,0.0034,0.0039,-0.0018,-0.0019,-0.0019,-0.0019,0,-0.0047,-0.0031,-0.0021,-0.0002,0.0009,0.0026,0.0031,0.0037,0.0033,0.0037,0.0051,0.0037,0.0046,0.0035,0.002,0.0041,0.0035,0.0019,0.0012,0.0031,0.004,0.0044,-0.0016,-0.0017,-0.0017,-0.0018,0,0,-0.0037,-0.0007,-0.0003,0.0016,0.0031,0.0047,0.0061,0.0082,0.0101,0.0095,0.0125,0.0109,0.0104,0.0103,0.0087,0.0086,0.0103,0.0062,0.0062,0.0078,0.0123,0.0113,0.0117,0.0089,0.009,0.009,0.012,0,-0.0012,0.0029,0.0036,0.0075,0.0098,0.01,0.0119,0.0133,0.0138,0.0162,0.0153,0.017,0.013,0.0137,0.013,0.0112,0.0116,0.0097,0.0099,0.0099,0.0091,0.0122,0.0132,0.0158,0.0124,0.0125,0.0125,0,0.0017,0.0042,0.0085,0.0124,0.0135,0.0154,0.019,0.0208,0.0231,0.0236,0.0249,0.0243,0.025,0.0209,0.0198,0.0187,0.0162,0.0142,0.0142,0.0129,0.0098,0.0133,0.0168,0.013,0.0132,0.0132,0.0131,0,0.0034,0.0078,0.0115,0.0128,0.0167,0.0187,0.0208,0.0232,0.026,0.029,0.0317,0.0316,0.0326,0.0297,0.0248,0.0226,0.0236,0.0201,0.0174,0.0173,0.0181,0.0179,0.0186,0.0202,0.0202,0.0202,0.0202,0,0.0062,0.0092,0.0128,0.015,0.0201,0.0215,0.0268,0.0285,0.0325,0.0377,0.0362,0.0404,0.0345,0.034,0.0287,0.0252,0.0268,0.0194,0.0185,0.019,0.0189,0.0155,0.0135,0.0203,0.0203,0.0203,0.0203,0,0.0079,0.01,0.0148,0.0194,0.0212,0.0249,0.0309,0.0349,0.0377,0.0447,0.0464,0.0475,0.0469,0.0412,0.0369,0.0307,0.0259,0.0252,0.0263,0.0254,0.0179,0.016,0.0189,0.0182,0.0231,0.0231,0.0231,0,0.0092,0.0119,0.018,0.0213,0.0237,0.0291,0.0333,0.0373,0.0421,0.05,0.0543,0.0556,0.0582,0.0515,0.0412,0.0335,0.0288,0.0277,0.0232,0.0193,0.0164,0.0164,0.0155,0.0256,0.0256,0.0257,0.0257,0,0.0122,0.0141,0.0182,0.0248,0.0298,0.036,0.0422,0.0469,0.0531,0.0598,0.0682,0.0711,0.0649,0.058,0.0455,0.0387,0.0267,0.0277,0.0239,0.0195,0.0194,0.0176,0.0218,0.0258,0.0258,0.0258,0.0258,0.0258,0.0143,0.0175,0.0228,0.029,0.0349,0.0425,0.0484,0.0561,0.0656,0.0764,0.0777,0.0839,0.0725,0.0563,0.0457,0.0278,0.0288,0.0219,0.0204,0.021,0.0193,0.0238,0.0259,0.0259,0.0259,0.0259,0.0259,0,0.0173,0.021,0.0268,0.0346,0.0412,0.044,0.0545,0.0616,0.074,0.0834,0.0908,0.09,0.0761,0.0593,0.0364,0.0235,0.0189,0.0167,0.0168,0.0164,0.0208,0.0196,0.0202,0.0202,0.0202,0.0202,0.0202,0.0202,0.0192,0.0247,0.0276,0.0384,0.0441,0.0541,0.0606,0.0724,0.0814,0.0946,0.0998,0.1015,0.0923,0.0529,0.0272,0.0196,0.0129,0.011,0.0082,0.0098,0.0101,0.0104,0.0088,0.0071,0.007,0.0056,0.0055,0.0055]}],[{"header":{"parameterUnit":"m.s-1","parameterCategory":2,"la1":30.2991,"la2":30.254,"lo1":-89.0895,"lo2":-89.0444,"dy":0.0017,"dx":0.0017,"nx":28,"ny":28,"refTime":"2024-02-23T09:00:00:Z","depth":"2","parameterNumber":2,"parameterNumberName":"U-component_of_CURRENTS"},"data":[0,0,0,0,0,0,0,0,0,0,0,0,0,0,0,0,0,0,0,0,0,0,0,0,0,0,0,0,0,0,0,0,0,0,0,0,0,0,0,0,0,0,0,0,0,0,0,0,0,0,0,0,0,0,0,0,0,0,0.1133,0.1133,0,0.1145,0.1145,0.1145,0.1152,0.1152,0.1151,0.1151,0.1152,0.1152,0.1152,0,0,0,0,0,0,0,0,0,0,0,0,0,0.1133,0.1133,0.1133,0.1133,0.1133,0.1145,0.1145,0.1145,0.1152,0.1152,0.1151,0.1151,0.1152,0.1152,0.1152,0,0,0,0,0,0,0,0,0,0,0,0,0,0.1138,0.1133,0.1133,0.1137,0.1138,0.1145,0.1145,0.1145,0.1152,0.1152,0.1151,0.1151,0.1152,0.1152,0.1152,0.1155,0,0,0.1153,0.1153,0,0,0,0,0,0,0,0,0.1138,0.1139,0.1136,0.1137,0.1137,0.1146,0.1145,0.1148,0.1152,0.1147,0.1151,0.1151,0.1149,0.1149,0.1153,0.1155,0.1155,0.1153,0.1153,0.1153,0.1153,0,0,0,0,0,0,0,0.1138,0.1138,0.1139,0.1137,0.1137,0.1144,0.1145,0.1146,0.1149,0.1148,0.1148,0.1148,0.1149,0.1153,0.1153,0.1155,0.1153,0.1153,0.1153,0.1153,0.1186,0.1187,0,0,0,0,0,0,0.1134,0.1138,0.1138,0.1139,0.1137,0.1144,0.1145,0.1144,0.1149,0.115,0.1148,0.1148,0.1153,0.1153,0.1153,0.1183,0.1153,0.1153,0.1153,0.1185,0.1186,0.1187,0,0,0,0,0,0,0.1134,0.1134,0.1138,0.1138,0.1139,0.1144,0.1143,0.1144,0.1156,0.1149,0.115,0.116,0.1152,0.1153,0.1161,0.1182,0.1153,0.1153,0.1184,0.1185,0.1186,0.1227,0,0,0,0,0,0,0.1134,0.1134,0.1137,0.1138,0.1139,0.1147,0.1143,0.1144,0.1156,0.1156,0.1159,0.1159,0.1152,0.1161,0.1161,0.1182,0.1153,0.1183,0.1185,0.1186,0.1224,0.1229,0.1233,0,0,0,0,0,0.1134,0.1135,0.1137,0.1137,0.1141,0.1148,0.1149,0.1153,0.1156,0.1164,0.1166,0.1159,0.117,0.1161,0.1161,0.1183,0.1182,0.1184,0.1186,0.1222,0.1228,0.1233,0,0,0,0,0,0,0.1137,0.1136,0.1138,0.1139,0.1146,0.1149,0.1155,0.116,0.1169,0.1171,0.1166,0.1165,0.1185,0.1176,0.1166,0.1197,0.1177,0.1179,0.1205,0.121,0.1214,0.1238,0.1153,0,0,0,0,0,0.1139,0.1142,0.1143,0.1147,0.115,0.1156,0.1161,0.1165,0.117,0.1174,0.1178,0.1183,0.1192,0.1193,0.1199,0.1211,0.1215,0.1226,0.123,0.1234,0.1254,0.1276,0.1285,0.1193,0.1193,0.1193,0,0,0.114,0.1142,0.1143,0.1149,0.1154,0.1164,0.116,0.117,0.1186,0.1172,0.1197,0.1201,0.1199,0.1217,0.1225,0.1212,0.126,0.1236,0.124,0.1258,0.1279,0.1288,0.1297,0.1194,0.1194,0.1194,0,0,0.1144,0.1149,0.1151,0.116,0.117,0.1175,0.1181,0.1191,0.1203,0.1222,0.1222,0.1241,0.1246,0.1257,0.126,0.1293,0.1286,0.1291,0.1329,0.1351,0.1359,0.1366,0.1372,0.1379,0.1289,0.1289,0.1289,0,0.1149,0.1151,0.1155,0.1163,0.1172,0.1182,0.1191,0.1208,0.1223,0.1238,0.1234,0.1271,0.127,0.1301,0.1317,0.1305,0.131,0.1308,0.1357,0.1365,0.1371,0.1376,0.1384,0.1291,0.1291,0.1291,0.129,0,0.1152,0.116,0.1165,0.1179,0.1191,0.1202,0.122,0.1241,0.1258,0.1275,0.1314,0.1322,0.1343,0.1348,0.1345,0.1394,0.138,0.1364,0.1345,0.1383,0.1385,0.1393,0.1294,0.1293,0.1293,0.1292,0,0,0.1146,0.1162,0.1166,0.1175,0.12,0.1209,0.1241,0.127,0.1298,0.1327,0.1362,0.1396,0.1409,0.1416,0.1417,0.1444,0.1492,0.1431,0.1431,0.144,0.1535,0.1447,0.1446,0.1485,0.1487,0.1488,0.1513,0,0.1149,0.1162,0.1173,0.1195,0.1203,0.1228,0.1258,0.1292,0.1322,0.1361,0.1392,0.1428,0.1431,0.1447,0.1477,0.1489,0.1516,0.1487,0.1495,0.1495,0.1416,0.1454,0.133,0.1334,0.152,0.1521,0.1522,0,0.1146,0.1157,0.1172,0.1202,0.1209,0.123,0.1279,0.1308,0.1367,0.1392,0.1439,0.1464,0.1517,0.1509,0.1564,0.1545,0.1555,0.1563,0.1563,0.1479,0.1423,0.1329,0.1341,0.1534,0.1533,0.1532,0.1531,0,0.1132,0.1157,0.1168,0.1179,0.1216,0.1236,0.1263,0.132,0.1351,0.142,0.1452,0.1508,0.1537,0.1572,0.1594,0.1585,0.1643,0.162,0.1554,0.1547,0.1442,0.1422,0.1672,0.1672,0.1672,0.1672,0.1672,0,0.1126,0.1139,0.1165,0.1173,0.12,0.1231,0.1273,0.1311,0.137,0.1407,0.147,0.1504,0.156,0.1594,0.161,0.1599,0.1652,0.1577,0.1555,0.1449,0.143,0.1604,0.1596,0.1673,0.1673,0.1672,0.1672,0,0.1111,0.1126,0.1144,0.118,0.1192,0.1216,0.1271,0.1299,0.1365,0.1413,0.144,0.1512,0.1547,0.1588,0.1632,0.1604,0.1611,0.1597,0.146,0.1422,0.1497,0.1491,0.1523,0.152,0.1518,0.1516,0.1514,0,0.11,0.1107,0.1142,0.1152,0.1171,0.1207,0.1227,0.1289,0.1318,0.1407,0.1422,0.1486,0.1501,0.1526,0.1503,0.1501,0.1565,0.1376,0.1336,0.151,0.1486,0.1483,0.148,0.1213,0.1209,0.1206,0.1203,0,0.1083,0.1101,0.1111,0.1134,0.1155,0.1176,0.1211,0.1231,0.1297,0.1335,0.1371,0.1394,0.141,0.1342,0.1337,0.1316,0.1361,0.1306,0.1541,0.1259,0.1217,0.1193,0.1201,0.1174,0.1177,0.1179,0.1181,0.1182,0.1069,0.1077,0.1093,0.1107,0.113,0.1141,0.1133,0.116,0.1183,0.1212,0.127,0.1253,0.1254,0.1168,0.1127,0.1087,0.1178,0.1124,0.1135,0.1149,0.1098,0.1053,0.097,0.0972,0.0973,0.0975,0.0976,0,0.1049,0.1057,0.1066,0.1075,0.107,0.1104,0.111,0.1079,0.1062,0.11,0.1107,0.1003,0.095,0.0961,0.0853,0.0829,0.0833,0.0792,0.0804,0.0831,0.0856,0.0792,0.0582,0.0581,0.058,0.058,0,0,0.1037,0.1029,0.1026,0.1005,0.1014,0.0986,0.0975,0.093,0.0928,0.0888,0.0867,0.0927,0.094,0.0772,0.073,0.0648,0.0741,0.0611,0.0924,0.0968,0.0992,0.1039,0.0969,0,0,0,0,0]},{"header":{"parameterUnit":"m.s-1","parameterCategory":2,"la1":30.2991,"la2":30.254,"lo1":-89.0895,"lo2":-89.0444,"dy":0.0017,"dx":0.0017,"nx":28,"ny":28,"refTime":"2024-02-23T09:00:00:Z","depth":"2","parameterNumber":3,"parameterNumberName":"V-component_of_CURRENTS"},"data":[0,0,0,0,0,0,0,0,0,0,0,0,0,0,0,0,0,0,0,0,0,0,0,0,0,0,0,0,0,0,0,0,0,0,0,0,0,0,0,0,0,0,0,0,0,0,0,0,0,0,0,0,0,0,0,0,0,0,0.0038,0.0039,0,0.004,0.004,0.004,0.0029,0.0029,0.0029,0.0029,0.0018,0.0018,0.0017,0,0,0,0,0,0,0,0,0,0,0,0,0,0.0013,0.0014,0.0038,0.0039,0.0039,0.004,0.004,0.004,0.003,0.0029,0.0029,0.0029,0.0018,0.0018,0.0017,0,0,0,0,0,0,0,0,0,0,0,0,0,0.0019,0.0014,0.0038,0.0035,0.0035,0.004,0.004,0.004,0.003,0.0029,0.0029,0.0029,0.0018,0.0018,0.0017,0.0021,0,0,0.0017,0.0017,0,0,0,0,0,0,0,0,0.0019,0.002,0.0035,0.0035,0.0035,0.0036,0.0027,0.0033,0.003,0.003,0.0029,0.0029,0.0024,0.0023,0.0022,0.002,0.002,0.0017,0.0016,0.0016,0.0016,0,0,0,0,0,0,0,0.0019,0.002,0.0038,0.0035,0.0035,0.0029,0.0029,0.0028,0.0027,0.003,0.003,0.0032,0.0023,0.0022,0.0022,0.002,0.0017,0.0016,0.0016,0.0016,0.002,0.002,0,0,0,0,0,0,0.0022,0.002,0.0038,0.0038,0.0028,0.0029,0.003,0.0034,0.0027,0.0026,0.0032,0.0032,0.0023,0.0022,0.0021,0.0031,0.0016,0.0016,0.0016,0.002,0.002,0.002,0,0,0,0,0,0,0.0022,0.0024,0.0038,0.003,0.0031,0.003,0.0035,0.0035,0.0032,0.0029,0.0028,0.0031,0.0022,0.0021,0.0021,0.003,0.0016,0.0016,0.002,0.002,0.002,0.0046,0,0,0,0,0,0,0.0021,0.0024,0.0027,0.003,0.0032,0.0045,0.0036,0.0035,0.0035,0.0034,0.0027,0.0026,0.0022,0.0022,0.0021,0.0029,0.0016,0.0019,0.002,0.002,0.0045,0.0047,0.0049,0,0,0,0,0,0.002,0.0028,0.0027,0.0029,0.0036,0.0045,0.0046,0.0043,0.0035,0.0038,0.0032,0.0026,0.0024,0.0022,0.0021,0.0029,0.0019,0.002,0.002,0.0044,0.0047,0.0049,0,0,0,0,0,0,0.0018,0.0028,0.0027,0.0036,0.0042,0.0044,0.0047,0.0043,0.0041,0.0038,0.003,0.0029,0.0032,0.0026,0.0024,0.0031,0.0021,0.0021,0.0039,0.0041,0.0043,0.0054,0.0016,0,0,0,0,0,0.002,0.0027,0.0035,0.0042,0.0046,0.0045,0.0047,0.0046,0.0046,0.0044,0.0039,0.0034,0.0034,0.0034,0.0031,0.0036,0.0033,0.004,0.0042,0.0044,0.0053,0.0054,0.0057,0.0022,0.0022,0.0022,0,0,0.002,0.0027,0.0031,0.0042,0.0045,0.0057,0.0046,0.0052,0.006,0.0044,0.0049,0.0041,0.0036,0.0042,0.0043,0.0038,0.0052,0.0045,0.0047,0.0054,0.0055,0.0058,0.0062,0.0023,0.0022,0.0022,0,0,0.0031,0.0032,0.0045,0.0052,0.0061,0.0063,0.0065,0.0068,0.0068,0.0071,0.0062,0.0061,0.0057,0.006,0.0059,0.0072,0.0062,0.0067,0.0089,0.0091,0.0094,0.0096,0.0095,0.0097,0.007,0.007,0.007,0,0.0031,0.005,0.0049,0.0065,0.0074,0.0067,0.0085,0.0084,0.0085,0.0091,0.0076,0.0078,0.0068,0.0085,0.0086,0.0079,0.0074,0.008,0.0094,0.0097,0.0099,0.0096,0.0099,0.0071,0.0071,0.0071,0.007,0,0.0055,0.0069,0.0077,0.0095,0.0103,0.0117,0.0121,0.0125,0.0118,0.0119,0.0128,0.0115,0.012,0.0112,0.0101,0.0116,0.0106,0.0096,0.0089,0.0104,0.01,0.0102,0.0073,0.0072,0.0072,0.0072,0,0,0.006,0.0089,0.0092,0.0109,0.0122,0.0135,0.0147,0.0165,0.0179,0.0169,0.019,0.0177,0.0169,0.0169,0.0156,0.0151,0.0156,0.013,0.0129,0.0131,0.0157,0.0143,0.0144,0.0147,0.0147,0.0148,0.0146,0,0.0081,0.0118,0.0125,0.0159,0.0181,0.0182,0.0198,0.0209,0.021,0.0226,0.0215,0.0226,0.0192,0.0196,0.0187,0.0167,0.0163,0.0158,0.0139,0.0139,0.0128,0.0146,0.0149,0.0147,0.0148,0.0149,0.0149,0,0.0105,0.0128,0.0167,0.0203,0.0212,0.0228,0.0259,0.0274,0.0289,0.0291,0.0296,0.0286,0.0286,0.0251,0.0228,0.0225,0.0195,0.0172,0.0172,0.0154,0.0129,0.0133,0.0151,0.0152,0.0152,0.0151,0.0151,0,0.0119,0.0159,0.0193,0.0204,0.024,0.0257,0.0275,0.0294,0.0319,0.0337,0.0357,0.0346,0.035,0.0312,0.026,0.0246,0.023,0.0207,0.0168,0.0167,0.0164,0.0161,0.0194,0.0194,0.0194,0.0194,0.0194,0,0.0143,0.017,0.0203,0.0223,0.0267,0.028,0.0326,0.034,0.0371,0.0414,0.0394,0.0422,0.0363,0.0344,0.0287,0.0237,0.0252,0.018,0.017,0.0172,0.017,0.0169,0.0166,0.0193,0.0193,0.0193,0.0194,0,0.0155,0.0176,0.0219,0.026,0.0277,0.0308,0.0363,0.0397,0.0419,0.0476,0.0488,0.0485,0.046,0.0397,0.034,0.028,0.0229,0.0205,0.0209,0.0198,0.0157,0.0155,0.0167,0.0166,0.0166,0.0166,0.0166,0,0.0167,0.019,0.0246,0.0276,0.0297,0.0345,0.0384,0.0419,0.0461,0.0519,0.0553,0.0545,0.0548,0.0455,0.0351,0.0259,0.0239,0.0193,0.0166,0.0168,0.0156,0.0155,0.0154,0.017,0.017,0.017,0.017,0,0.019,0.0206,0.0243,0.0305,0.035,0.0408,0.0465,0.0507,0.056,0.0608,0.0663,0.0668,0.0583,0.0488,0.0353,0.0283,0.0206,0.0186,0.0201,0.0174,0.017,0.0159,0.0158,0.0169,0.0169,0.0169,0.0169,0.0169,0.0205,0.0233,0.0281,0.034,0.0395,0.0467,0.0521,0.0584,0.066,0.0734,0.0732,0.0738,0.0623,0.045,0.0329,0.0198,0.0207,0.0152,0.0153,0.0154,0.0151,0.0147,0.0141,0.0141,0.0141,0.0141,0.0141,0,0.0227,0.0261,0.0315,0.039,0.0454,0.048,0.0577,0.0634,0.0727,0.0776,0.0813,0.0704,0.0594,0.0461,0.0271,0.0155,0.0141,0.0111,0.0121,0.0123,0.0125,0.0121,0.0103,0.0102,0.0102,0.0101,0,0,0.0242,0.0293,0.0321,0.0426,0.0481,0.0573,0.0632,0.0716,0.0772,0.0822,0.0821,0.0795,0.0638,0.0488,0.0332,0.0222,0.0197,0.0193,0.0237,0.027,0.0273,0.0162,0.0161,0,0,0,0,0]}],[{"header":{"parameterUnit":"m.s-1","parameterCategory":2,"la1":30.2991,"la2":30.254,"lo1":-89.0895,"lo2":-89.0444,"dy":0.0017,"dx":0.0017,"nx":28,"ny":28,"refTime":"2024-02-23T09:00:00:Z","depth":"4","parameterNumber":2,"parameterNumberName":"U-component_of_CURRENTS"},"data":[0,0,0,0,0,0,0,0,0,0,0,0,0,0,0,0,0,0,0,0,0,0,0,0,0,0,0,0,0,0,0,0,0,0,0,0,0,0,0,0,0,0,0,0,0,0,0,0,0,0,0,0,0,0,0,0,0,0,0.036,0.036,0,0.0399,0.04,0.04,0.0431,0.0431,0.0431,0.0432,0.0486,0.0487,0.0488,0,0,0,0,0,0,0,0,0,0,0,0,0,0.034,0.034,0.036,0.036,0.0361,0.0399,0.04,0.04,0.0431,0.0431,0.0432,0.0432,0.0485,0.0486,0.0488,0,0,0,0,0,0,0,0,0,0,0,0,0,0.036,0.034,0.036,0.0381,0.0383,0.0399,0.04,0.04,0.0431,0.0431,0.0432,0.0432,0.0485,0.0486,0.0488,0.0489,0,0,0.0493,0.0494,0,0,0,0,0,0,0,0,0.0359,0.0361,0.0377,0.038,0.0382,0.0411,0.0412,0.0431,0.0431,0.0412,0.0432,0.0432,0.0462,0.0465,0.0471,0.0491,0.0493,0.0493,0.0494,0.0495,0.0496,0,0,0,0,0,0,0,0.0358,0.036,0.0375,0.0378,0.0381,0.0398,0.0402,0.0416,0.0434,0.0414,0.0416,0.0421,0.0463,0.0469,0.0473,0.0494,0.0493,0.0495,0.0496,0.0496,0.0571,0.0572,0,0,0,0,0,0,0.0351,0.0358,0.0374,0.0376,0.0372,0.0398,0.0402,0.0401,0.0433,0.0439,0.0421,0.0422,0.0466,0.0471,0.0475,0.0523,0.0495,0.0497,0.0498,0.057,0.0572,0.0573,0,0,0,0,0,0,0.0351,0.0352,0.0372,0.0369,0.0373,0.0398,0.0397,0.0401,0.0427,0.0438,0.0444,0.0444,0.0467,0.0472,0.0504,0.0523,0.0497,0.0499,0.0569,0.0571,0.0572,0.059,0,0,0,0,0,0,0.035,0.0351,0.0357,0.0368,0.0373,0.0393,0.0397,0.0402,0.0428,0.0432,0.046,0.0464,0.0467,0.0502,0.0506,0.0525,0.05,0.0568,0.057,0.0572,0.0588,0.0592,0.0595,0,0,0,0,0,0.0349,0.0349,0.0357,0.036,0.0377,0.0394,0.0398,0.0417,0.0429,0.0443,0.0463,0.0465,0.0516,0.0504,0.0508,0.0529,0.0567,0.0569,0.0571,0.0587,0.0591,0.0595,0,0,0,0,0,0,0.0349,0.0353,0.0362,0.0366,0.0385,0.0399,0.0413,0.0429,0.0455,0.0463,0.0476,0.0481,0.0518,0.0522,0.0508,0.0557,0.0543,0.0546,0.0553,0.0557,0.056,0.057,0.0502,0,0,0,0,0,0.035,0.0351,0.0364,0.0373,0.038,0.0402,0.0415,0.0429,0.0449,0.0463,0.0485,0.0507,0.0527,0.0541,0.0559,0.0584,0.0592,0.0601,0.0605,0.0608,0.062,0.065,0.0658,0.058,0.058,0.058,0,0,0.0355,0.0357,0.036,0.0373,0.0389,0.0405,0.0412,0.0435,0.0455,0.0464,0.0504,0.0522,0.0537,0.0566,0.0583,0.0574,0.0631,0.061,0.0613,0.0624,0.0653,0.0661,0.0668,0.0581,0.0581,0.0581,0,0,0.0362,0.0366,0.0371,0.0386,0.0409,0.0419,0.043,0.0457,0.0475,0.0508,0.0523,0.0557,0.0585,0.0604,0.0614,0.0649,0.0649,0.0654,0.0679,0.0708,0.0715,0.0721,0.0725,0.0731,0.0654,0.0654,0.0654,0,0.0372,0.0376,0.038,0.0393,0.0408,0.0427,0.0446,0.0464,0.0502,0.0523,0.0525,0.0588,0.0603,0.0642,0.0656,0.0657,0.0666,0.0659,0.0712,0.0719,0.0724,0.0728,0.0734,0.0655,0.0655,0.0655,0.0655,0,0.038,0.0394,0.04,0.0418,0.0436,0.0455,0.0476,0.0503,0.0526,0.0549,0.0599,0.0622,0.0663,0.0671,0.0675,0.0727,0.0716,0.0713,0.07,0.0733,0.0734,0.0741,0.0657,0.0656,0.0656,0.0656,0,0,0.0377,0.04,0.0406,0.0421,0.0451,0.0465,0.0497,0.0531,0.0559,0.0598,0.0638,0.0682,0.0706,0.0721,0.0735,0.0762,0.0805,0.0759,0.076,0.076,0.0857,0.0766,0.0764,0.0812,0.0814,0.0815,0.0835,0,0.0388,0.0412,0.0422,0.0455,0.0469,0.0495,0.0523,0.0559,0.0589,0.0632,0.0667,0.0713,0.072,0.0748,0.0777,0.0804,0.0826,0.0799,0.0828,0.0829,0.0742,0.0771,0.0821,0.084,0.0841,0.0842,0.0843,0,0.0392,0.0407,0.0437,0.0471,0.0481,0.0509,0.0556,0.0584,0.0639,0.0664,0.0716,0.0747,0.0808,0.0801,0.0866,0.0849,0.0862,0.0872,0.0872,0.079,0.0752,0.0804,0.0855,0.0854,0.0853,0.0852,0.0852,0,0.038,0.0417,0.044,0.0454,0.0496,0.0524,0.0553,0.0605,0.0635,0.0699,0.0728,0.0793,0.0834,0.087,0.0899,0.0893,0.0949,0.0939,0.0865,0.0857,0.0924,0.0918,0.0983,0.0983,0.0983,0.0983,0.0983,0,0.0374,0.0396,0.0442,0.0456,0.0491,0.0528,0.0573,0.0606,0.0666,0.0701,0.0755,0.079,0.0858,0.0895,0.0912,0.0904,0.0962,0.0876,0.0863,0.0928,0.0922,0.0928,0.0921,0.0983,0.0983,0.0983,0.0983,0,0.0352,0.0383,0.0412,0.0465,0.0487,0.0515,0.0583,0.0609,0.067,0.0717,0.0745,0.0812,0.0852,0.0891,0.0942,0.091,0.0916,0.0896,0.0954,0.0942,0.08,0.0794,0.0818,0.0815,0.0813,0.0811,0.0809,0,0.0336,0.0352,0.0413,0.0432,0.046,0.051,0.0538,0.0606,0.0631,0.0718,0.0731,0.08,0.0833,0.0833,0.0871,0.0879,0.0868,0.0854,0.084,0.0802,0.0787,0.0785,0.0783,0.0805,0.0804,0.0804,0.0803,0,0.0307,0.034,0.0362,0.0404,0.044,0.0468,0.0518,0.0538,0.0608,0.0672,0.0712,0.0737,0.0766,0.0792,0.0797,0.0803,0.0856,0.0829,0.0834,0.082,0.0786,0.0774,0.0774,0.0795,0.0796,0.0797,0.0797,0,0.0287,0.0296,0.0335,0.0366,0.0403,0.0417,0.045,0.0488,0.0529,0.0629,0.064,0.0703,0.0767,0.0751,0.076,0.0752,0.0739,0.0709,0.072,0.073,0.0688,0.0631,0.0588,0,0,0,0,0,0.0267,0.0274,0.0293,0.0318,0.0349,0.0374,0.0427,0.0458,0.0535,0.0546,0.0597,0.0624,0.0643,0.0672,0.0646,0.0696,0.0727,0.0657,0.0694,0.0748,0.0758,0.0714,0,0,0,0,0,0,0.0255,0.0272,0.0277,0.0273,0.0281,0.0306,0.0341,0.0389,0.0402,0.0488,0.0508,0.0568,0.06,0.0657,0.0631,0.0636,0.0639,0.0697,0.0694,0.0742,0.0751,0.0759,0.0718,0,0,0,0,0]},{"header":{"parameterUnit":"m.s-1","parameterCategory":2,"la1":30.2991,"la2":30.254,"lo1":-89.0895,"lo2":-89.0444,"dy":0.0017,"dx":0.0017,"nx":28,"ny":28,"refTime":"2024-02-23T09:00:00:Z","depth":"4","parameterNumber":3,"parameterNumberName":"V-component_of_CURRENTS"},"data":[0,0,0,0,0,0,0,0,0,0,0,0,0,0,0,0,0,0,0,0,0,0,0,0,0,0,0,0,0,0,0,0,0,0,0,0,0,0,0,0,0,0,0,0,0,0,0,0,0,0,0,0,0,0,0,0,0,0,0.0147,0.0147,0,0.0145,0.0144,0.0144,0.0139,0.0139,0.0139,0.0139,0.0128,0.0128,0.0128,0,0,0,0,0,0,0,0,0,0,0,0,0,0.0133,0.0133,0.0147,0.0147,0.0147,0.0145,0.0144,0.0144,0.0139,0.0139,0.0139,0.0139,0.0128,0.0128,0.0128,0,0,0,0,0,0,0,0,0,0,0,0,0,0.0136,0.0134,0.0147,0.0144,0.0144,0.0145,0.0144,0.0144,0.0139,0.0139,0.0139,0.0139,0.0128,0.0128,0.0128,0.0129,0,0,0.0127,0.0127,0,0,0,0,0,0,0,0,0.0136,0.0136,0.0145,0.0144,0.0144,0.0142,0.0136,0.0139,0.0139,0.0141,0.0139,0.0139,0.0132,0.0132,0.0131,0.0128,0.0128,0.0127,0.0127,0.0127,0.0127,0,0,0,0,0,0,0,0.0135,0.0136,0.0146,0.0145,0.0144,0.0138,0.0138,0.0136,0.0137,0.0141,0.014,0.014,0.0132,0.0132,0.0131,0.0128,0.0127,0.0127,0.0126,0.0126,0.0128,0.0128,0,0,0,0,0,0,0.0137,0.0136,0.0146,0.0146,0.014,0.0139,0.0139,0.0143,0.0137,0.0137,0.014,0.014,0.0132,0.0132,0.0131,0.0139,0.0127,0.0126,0.0126,0.0127,0.0128,0.0128,0,0,0,0,0,0,0.0137,0.0138,0.0146,0.0141,0.0141,0.0139,0.0143,0.0143,0.0141,0.0137,0.0136,0.0139,0.0132,0.0131,0.013,0.0138,0.0126,0.0126,0.0127,0.0127,0.0128,0.015,0,0,0,0,0,0,0.0136,0.0138,0.0141,0.0141,0.0142,0.0148,0.0144,0.0143,0.0142,0.0141,0.0136,0.0135,0.0132,0.0131,0.013,0.0137,0.0126,0.0127,0.0127,0.0128,0.0149,0.0151,0.0152,0,0,0,0,0,0.0136,0.0141,0.0141,0.0143,0.0146,0.0149,0.0148,0.0146,0.0142,0.0143,0.014,0.0135,0.0133,0.0131,0.013,0.0137,0.0127,0.0127,0.0128,0.0148,0.015,0.0152,0,0,0,0,0,0,0.0135,0.0141,0.0141,0.0148,0.0149,0.0148,0.0149,0.0146,0.0144,0.0143,0.0137,0.0136,0.0139,0.0133,0.0131,0.0138,0.0129,0.0129,0.0145,0.0147,0.0149,0.0152,0.0125,0,0,0,0,0,0.0137,0.0144,0.0146,0.0151,0.0152,0.015,0.015,0.0149,0.0147,0.0146,0.0143,0.014,0.014,0.014,0.0138,0.0141,0.0129,0.0145,0.0147,0.0149,0.015,0.0137,0.0138,0.0129,0.0129,0.0129,0,0,0.0137,0.0142,0.0145,0.0151,0.0152,0.0158,0.015,0.0152,0.0157,0.0146,0.015,0.0146,0.0142,0.0147,0.0148,0.0144,0.0144,0.0149,0.0151,0.0151,0.0138,0.0139,0.014,0.013,0.013,0.013,0,0,0.0142,0.0146,0.0154,0.0157,0.0161,0.0162,0.0163,0.0163,0.0163,0.0166,0.0161,0.016,0.0158,0.016,0.016,0.017,0.0154,0.0169,0.0182,0.017,0.017,0.017,0.0155,0.0154,0.017,0.017,0.017,0,0.014,0.0155,0.0155,0.0164,0.017,0.0165,0.0175,0.0175,0.0175,0.0177,0.017,0.0169,0.0166,0.0174,0.0179,0.0175,0.0162,0.0174,0.0172,0.0172,0.0172,0.0156,0.0154,0.0171,0.0171,0.0171,0.0171,0,0.0153,0.0164,0.0169,0.0182,0.0187,0.0195,0.0197,0.0201,0.0198,0.0198,0.0201,0.0194,0.0195,0.0194,0.019,0.0192,0.0181,0.0175,0.0167,0.0174,0.0157,0.0155,0.0173,0.0173,0.0172,0.0172,0,0,0.0152,0.0175,0.0177,0.0189,0.0199,0.0206,0.0216,0.0225,0.0232,0.0226,0.0234,0.0232,0.0224,0.0224,0.0217,0.0207,0.0197,0.0192,0.0191,0.0178,0.0165,0.0152,0.0148,0.0188,0.0188,0.0188,0.0152,0,0.0162,0.0187,0.0195,0.0218,0.0231,0.0234,0.0246,0.0252,0.0252,0.0256,0.0248,0.0252,0.0237,0.024,0.0227,0.0207,0.0192,0.0207,0.0159,0.0157,0.0146,0.0146,0.0188,0.015,0.015,0.0149,0.0149,0,0.0174,0.0191,0.0217,0.0244,0.0249,0.0262,0.0281,0.0291,0.0294,0.0294,0.029,0.028,0.0273,0.0257,0.022,0.0228,0.0198,0.0177,0.0175,0.0154,0.0141,0.0141,0.0145,0.0145,0.0146,0.0146,0.0146,0,0.0178,0.0207,0.0231,0.0239,0.0266,0.0279,0.0293,0.0302,0.0317,0.0319,0.0325,0.0306,0.0304,0.0264,0.022,0.0219,0.017,0.0164,0.0123,0.0121,0.0134,0.0134,0.0133,0.0133,0.0133,0.0133,0.0133,0,0.0189,0.0208,0.0236,0.025,0.0281,0.0293,0.0322,0.033,0.0346,0.0365,0.0347,0.0351,0.0304,0.0271,0.0225,0.0167,0.0173,0.0124,0.0112,0.0144,0.0145,0.0132,0.0133,0.0132,0.0132,0.0132,0.0133,0,0.0191,0.021,0.0239,0.0272,0.0286,0.0307,0.0349,0.0369,0.0379,0.0403,0.0407,0.0386,0.0342,0.0287,0.0222,0.0178,0.0122,0.0099,0.0135,0.0125,0.0079,0.0081,0.0051,0.005,0.0049,0.0049,0.0048,0,0.0195,0.021,0.0254,0.0276,0.0294,0.033,0.0358,0.0384,0.0406,0.0422,0.0433,0.0402,0.0378,0.0277,0.0213,0.012,0.0105,0.0072,0.0077,0.008,0.0071,0.0074,0.0077,0.0047,0.0047,0.0047,0.0047,0,0.0199,0.0215,0.024,0.0286,0.0322,0.0364,0.0403,0.0422,0.0452,0.0461,0.0455,0.0408,0.0355,0.0276,0.0202,0.0135,0.0093,0.0066,0.0067,0.007,0.0075,0.0068,0.0072,0.0045,0.0045,0.0045,0.0045,0,0.02,0.0217,0.0252,0.0295,0.0341,0.0386,0.0408,0.0436,0.046,0.0476,0.0469,0.0417,0.0387,0.0283,0.0215,0.0147,0.0129,0.0104,0.0103,0.0104,0.0129,0.0144,0.0123,0,0,0,0,0,0.02,0.0222,0.0259,0.0309,0.0355,0.0386,0.0434,0.0452,0.0478,0.0477,0.0477,0.0427,0.0331,0.0287,0.0218,0.0196,0.0113,0.0111,0.0082,0.0033,0.0035,0.0054,0,0,0,0,0,0,0.02,0.0233,0.0256,0.0315,0.035,0.0406,0.0439,0.0457,0.0456,0.0468,0.0417,0.04,0.0305,0.0369,0.0213,0.0193,0.0162,0.0069,0.0067,0.0032,0.0034,0.0036,0.0056,0,0,0,0,0]}]]